K7SKM Weather Reports


Display with metric or nautical units.
time (UTC)temp
F
wind
direction
speed
MPH
gust
MPH
rain 1hr
in
rain 24hr
in
rain mn
in
humidity
%
barometer
mb
20260905052204 55 169 0.0 0.0 0.00 0.09 0.09 84 1020.5
20260905051704 55 157 0.0 0.0 0.00 0.09 0.09 83 1020.5
20260905051201 56 150 0.0 0.0 0.00 0.09 0.09 83 1020.3
20260905050657 56 166 0.0 0.0 0.00 0.09 0.09 83 1020.4
20260905050154 55 189 0.0 0.0 0.00 0.09 0.09 82 1020.3
20260905045653 56 190 0.0 0.0 0.00 0.09 0.09 82 1020.2
20260905045148 56 195 0.0 0.0 0.00 0.09 0.09 82 1020.4
20260905044643 56 182 0.0 0.0 0.00 0.09 0.09 81 1020.4
20260905044138 56 141 0.0 0.0 0.00 0.09 0.09 82 1020.6
20260905043636 56 153 2.0 5.0 0.00 0.09 0.09 82 1020.4
20260905043132 56 155 0.0 0.0 0.00 0.09 0.09 81 1020.5
20260905042631 56 186 0.0 0.0 0.00 0.09 0.09 81 1020.4
20260905042126 57 168 0.0 0.0 0.00 0.09 0.09 81 1020.5
20260905041621 57 180 0.0 0.0 0.00 0.09 0.09 81 1020.4
20260905041116 57 153 0.0 0.0 0.00 0.09 0.09 81 1020.5
20260905040611 57 125 0.0 0.0 0.00 0.09 0.09 80 1020.5
20260905040109 57 132 0.0 3.0 0.00 0.09 0.09 80 1020.2
20260905035605 57 126 2.0 3.0 0.00 0.09 0.09 79 1020.2
20260905035101 57 181 0.0 0.0 0.00 0.09 0.09 79 1020.4
20260905034557 57 181 0.0 0.0 0.00 0.09 0.09 78 1020.3
20260905034051 58 155 0.0 0.0 0.00 0.09 0.09 78 1020.2
20260905033544 58 177 0.0 0.0 0.00 0.09 0.09 78 1020.3
20260905033041 58 195 0.0 0.0 0.00 0.09 0.09 76 1020.1
20260905032535 58 213 0.0 0.0 0.00 0.09 0.09 76 1020.2
20260905032030 58 185 0.0 0.0 0.00 0.09 0.09 76 1020.0
20260905031526 59 186 0.0 0.0 0.00 0.09 0.09 75 1020.0
20260905031025 59 187 0.0 0.0 0.00 0.09 0.09 74 1019.9
20260905030521 59 170 0.0 0.0 0.00 0.09 0.09 74 1020.0
20260905030021 60 161 0.0 0.0 0.00 0.09 0.09 73 1019.9
20260905025516 60 168 0.0 0.0 0.00 0.09 0.09 73 1019.9
20260905025012 60 176 0.0 0.0 0.00 0.09 0.09 71 1020.1
20260905024507 60 152 0.0 0.0 0.00 0.09 0.09 71 1019.9
20260905024003 60 185 0.0 0.0 0.00 0.09 0.09 71 1019.8
20260905023457 60 184 0.0 0.0 0.00 0.09 0.09 70 1019.8
20260905022956 60 188 0.0 0.0 0.00 0.09 0.09 69 1019.6
20260905022451 61 191 0.0 0.0 0.00 0.09 0.09 68 1019.8
20260905021947 61 179 0.0 0.0 0.00 0.09 0.09 67 1019.5
20260905021446 61 188 0.0 0.0 0.00 0.09 0.09 68 1019.8
20260905020941 61 193 0.0 0.0 0.00 0.09 0.09 66 1019.7
20260905020436 61 157 0.0 3.0 0.00 0.09 0.09 66 1019.9
20260905015936 62 180 0.0 0.0 0.00 0.09 0.09 66 1019.8
20260905015434 62 136 0.0 0.0 0.00 0.09 0.09 65 1019.9
20260905014933 62 144 0.0 3.0 0.00 0.09 0.09 65 1019.9
20260905014429 62 152 0.0 5.0 0.00 0.09 0.09 65 1019.7
20260905013924 62 145 0.0 3.0 0.00 0.09 0.09 65 1019.8
20260905013421 62 124 1.0 3.0 0.00 0.09 0.09 66 1019.7
20260905012915 63 132 0.0 5.0 0.00 0.09 0.09 66 1019.6
20260905012411 63 166 1.0 3.0 0.00 0.09 0.09 64 1019.8
20260905011908 63 145 2.0 5.0 0.00 0.09 0.09 64 1019.6
20260905011403 63 158 2.0 5.0 0.00 0.09 0.09 64 1019.5
20260905010858 63 127 0.0 3.0 0.00 0.09 0.09 64 1019.3
20260905010353 63 181 0.0 3.0 0.00 0.09 0.09 63 1019.1
20260905005849 64 181 0.0 0.0 0.00 0.09 0.09 62 1019.2
20260905005345 64 156 0.0 5.0 0.00 0.09 0.09 63 1019.0
20260905004840 65 160 0.0 3.0 0.00 0.09 0.09 62 1018.8
20260905004334 66 202 0.0 0.0 0.00 0.09 0.09 61 1019.0
20260905003830 65 111 0.0 0.0 0.00 0.09 0.09 61 1019.1
20260905003325 65 184 0.0 3.0 0.00 0.09 0.09 62 1018.9
20260905002820 64 189 0.0 3.0 0.00 0.09 0.09 63 1019.0
20260905002315 64 144 7.0 10.0 0.00 0.09 0.09 61 1018.9
20260905001810 64 132 4.0 5.0 0.00 0.09 0.09 61 1018.8
20260905001309 64 337 2.0 10.0 0.00 0.09 0.09 60 1018.9
20260905000805 64 130 7.0 12.0 0.00 0.09 0.09 59 1018.9
20260905000303 65 133 5.0 15.0 0.00 0.09 0.09 61 1018.9
20260904235756 66 130 5.0 10.0 0.00 0.09 0.09 60 1019.0
20260904235250 65 143 5.0 12.0 0.00 0.09 0.09 60 1018.8
20260904234745 66 135 8.0 12.0 0.00 0.09 0.09 61 1019.0
20260904234240 66 130 5.0 10.0 0.00 0.09 0.09 63 1018.9
20260904233736 66 162 8.0 12.0 0.00 0.09 0.09 63 1019.0
20260904233232 67 124 4.0 7.0 0.00 0.09 0.09 63 1018.8
20260904232728 66 124 10.0 12.0 0.00 0.09 0.09 61 1018.8
20260904232224 68 137 8.0 15.0 0.00 0.09 0.09 60 1018.8
20260904231719 67 135 0.0 0.0 0.00 0.09 0.09 53 1018.8
20260904231215 67 152 0.0 0.0 0.00 0.09 0.09 55 1018.7
20260904230709 66 150 0.0 0.0 0.00 0.09 0.09 57 1018.7
20260904230203 65 208 0.0 0.0 0.00 0.09 0.09 71 1018.6
20260904225702 64 171 0.0 0.0 0.00 0.09 0.09 65 1018.6
20260904225157 64 163 0.0 0.0 0.00 0.09 0.09 68 1018.6
20260904224650 63 118 2.0 5.0 0.00 0.09 0.09 71 1018.5
20260904224145 62 125 1.0 5.0 0.00 0.09 0.09 72 1018.3
20260904223645 63 129 2.0 5.0 0.00 0.09 0.09 76 1018.4
20260904223140 62 199 0.0 0.0 0.07 0.09 0.09 78 1018.3
20260904222636 61 213 0.0 0.0 0.07 0.09 0.09 76 1018.3
20260904222131 62 218 0.0 0.0 0.00 0.08 0.08 72 1018.2
20260904221631 63 132 0.0 3.0 0.07 0.08 0.08 69 1018.5
20260904221125 64 188 0.0 3.0 0.14 0.08 0.08 68 1018.5
20260904220621 68 157 0.0 0.0 0.00 0.06 0.06 61 1018.5
20260904220116 68 161 0.0 0.0 0.00 0.06 0.06 54 1018.3
20260904215616 68 118 0.0 0.0 0.00 0.06 0.06 56 1018.1
20260904215112 69 218 0.0 0.0 0.00 0.06 0.06 55 1018.2
20260904214607 69 207 0.0 0.0 0.00 0.06 0.06 56 1018.0
20260904214102 68 165 0.0 0.0 0.00 0.06 0.06 55 1017.9
20260904213600 69 209 0.0 0.0 0.00 0.06 0.06 55 1017.9
20260904213057 68 248 0.0 3.0 0.00 0.06 0.06 55 1018.1
20260904212556 69 260 0.0 0.0 0.00 0.06 0.06 55 1017.9
20260904212052 69 206 0.0 0.0 0.00 0.06 0.06 55 1018.0
20260904211551 70 130 0.0 0.0 0.00 0.06 0.06 52 1018.1
20260904211047 69 288 5.0 10.0 0.00 0.06 0.06 54 1017.9
20260904210546 69 251 3.0 5.0 0.00 0.06 0.06 55 1017.9
20260904210042 69 257 2.0 10.0 0.00 0.06 0.06 56 1017.9
20260904205537 70 313 0.0 0.0 0.00 0.06 0.06 56 1018.1
20260904205034 69 273 0.0 3.0 0.00 0.06 0.06 58 1018.1
20260904204530 67 280 4.0 7.0 0.00 0.06 0.06 56 1017.9
20260904204025 68 279 1.0 7.0 0.00 0.06 0.06 59 1018.0
20260904203521 69 261 2.0 5.0 0.00 0.06 0.06 58 1018.1
20260904203017 69 245 0.0 0.0 0.00 0.06 0.06 61 1018.1
20260904202513 69 257 0.0 3.0 0.00 0.06 0.06 61 1018.1
20260904202009 69 129 0.0 3.0 0.00 0.06 0.06 55 1018.2
20260904201504 69 208 0.0 0.0 0.00 0.06 0.06 58 1018.1
20260904200959 67 224 0.0 5.0 0.00 0.06 0.06 61 1018.2
20260904200457 67 316 5.0 12.0 0.00 0.06 0.06 58 1018.2
20260904195952 70 247 0.0 0.0 0.00 0.06 0.06 55 1018.0
20260904195451 69 250 0.0 0.0 0.00 0.06 0.06 56 1018.2
20260904194950 69 185 0.0 0.0 0.00 0.06 0.06 54 1018.1
20260904194445 67 272 3.0 10.0 0.00 0.06 0.06 58 1018.0
20260904193940 68 220 3.0 5.0 0.00 0.06 0.06 55 1018.2
20260904193435 70 18 0.0 0.0 0.00 0.06 0.06 54 1018.1
20260904192931 68 179 0.0 0.0 0.00 0.06 0.06 58 1018.0
20260904192426 68 99 0.0 0.0 0.00 0.06 0.06 58 1018.2
20260904191922 69 168 0.0 0.0 0.00 0.06 0.06 57 1018.2
20260904191419 68 114 0.0 0.0 0.00 0.06 0.06 55 1018.2
20260904190915 69 220 0.0 0.0 0.00 0.06 0.06 59 1018.2
20260904190410 66 228 0.0 0.0 0.00 0.06 0.06 62 1018.2
20260904185906 67 289 0.0 0.0 0.00 0.06 0.06 60 1018.1
20260904185402 66 262 0.0 0.0 0.00 0.06 0.06 61 1018.1
20260904184901 68 234 0.0 0.0 0.00 0.06 0.06 60 1018.2
20260904184356 66 72 0.0 0.0 0.00 0.06 0.06 63 1018.3
20260904183851 66 89 0.0 0.0 0.00 0.06 0.06 63 1018.4
20260904183347 66 217 0.0 0.0 0.00 0.06 0.06 64 1018.3
20260904182842 66 151 0.0 0.0 0.00 0.06 0.06 65 1018.5
20260904182337 67 218 0.0 0.0 0.00 0.06 0.06 66 1018.5
20260904181832 67 261 0.0 0.0 0.00 0.06 0.06 66 1018.3
20260904181332 67 128 0.0 0.0 0.00 0.06 0.06 65 1018.4
20260904180828 66 212 0.0 0.0 0.00 0.06 0.06 70 1018.4
20260904180323 65 92 0.0 0.0 0.00 0.06 0.06 68 1018.5
20260904175822 64 44 0.0 0.0 0.00 0.06 0.06 72 1018.4
20260904175321 62 237 0.0 0.0 0.00 0.06 0.06 80 1018.4
20260904174815 61 235 0.0 0.0 0.00 0.06 0.06 84 1018.3
20260904174311 60 283 0.0 0.0 0.00 0.06 0.06 88 1018.4
20260904173807 59 270 0.0 0.0 0.00 0.06 0.06 93 1018.3
20260904173302 58 275 0.0 0.0 0.00 0.06 0.06 95 1018.4
20260904172758 58 286 0.0 0.0 0.00 0.06 0.06 96 1018.4
20260904172257 59 256 0.0 0.0 0.00 0.06 0.06 97 1018.2
20260904171752 58 92 0.0 0.0 0.00 0.06 0.06 97 1018.3
20260904171247 58 178 0.0 0.0 0.00 0.06 0.06 98 1018.4
20260904170744 57 148 0.0 0.0 0.00 0.06 0.06 98 1018.4
20260904170239 57 252 0.0 0.0 0.00 0.06 0.06 97 1018.3
20260904165739 58 219 0.0 0.0 0.00 0.06 0.06 97 1018.2
20260904165233 58 174 0.0 0.0 0.00 0.06 0.06 98 1018.2
20260904164733 57 208 0.0 0.0 0.00 0.06 0.06 98 1018.3
20260904164228 58 198 0.0 0.0 0.00 0.06 0.06 99 1018.3
20260904163724 57 188 0.0 0.0 0.00 0.06 0.06 99 1018.5
20260904163219 56 151 0.0 0.0 0.00 0.06 0.06 98 1018.4
20260904162718 56 200 0.0 0.0 0.00 0.06 0.06 98 1018.4
20260904162213 55 184 0.0 0.0 0.00 0.06 0.06 98 1018.3
20260904161709 56 170 0.0 0.0 0.00 0.06 0.06 98 1018.3
20260904161204 55 171 0.0 0.0 0.00 0.06 0.06 99 1018.3
20260904160700 55 206 0.0 0.0 0.00 0.06 0.06 99 1018.1
20260904160155 55 205 0.0 0.0 0.00 0.06 0.06 99 1018.1
20260904155650 55 206 0.0 0.0 0.00 0.06 0.06 99 1018.2
20260904155149 55 186 0.0 0.0 0.00 0.06 0.06 99 1018.1
20260904154647 54 181 0.0 0.0 0.00 0.06 0.06 98 1018.1
20260904154142 54 205 0.0 0.0 0.00 0.06 0.06 99 1017.9
20260904153637 54 206 0.0 0.0 0.00 0.06 0.06 98 1017.9
20260904153132 54 207 0.0 0.0 0.00 0.06 0.06 98 1018.1
20260904152629 54 201 0.0 0.0 0.00 0.06 0.06 99 1017.7
20260904152124 54 204 0.0 0.0 0.00 0.06 0.06 98 1017.7
20260904151619 54 192 0.0 0.0 0.00 0.06 0.06 99 1017.8
20260904151118 54 189 0.0 0.0 0.00 0.06 0.06 99 1017.7
20260904150614 54 194 0.0 0.0 0.00 0.06 0.06 99 1017.5
20260904150109 54 194 0.0 0.0 0.07 0.06 0.06 99 1017.7
20260904145607 54 192 0.0 0.0 0.00 0.05 0.05 99 1017.6
20260904145102 53 183 0.0 0.0 0.00 0.05 0.05 99 1017.4
20260904144558 53 192 0.0 0.0 0.00 0.05 0.05 99 1017.5
20260904144054 53 190 0.0 0.0 0.00 0.05 0.05 99 1017.3
20260904143550 53 191 0.0 0.0 0.07 0.05 0.05 99 1017.5
20260904143046 53 195 0.0 0.0 0.07 0.05 0.05 99 1017.7
20260904142542 53 193 0.0 0.0 0.00 0.04 0.04 99 1017.4
20260904142037 53 185 0.0 0.0 0.00 0.04 0.04 99 1017.2
20260904141532 53 185 0.0 0.0 0.07 0.04 0.04 99 1017.3
20260904141028 53 182 0.0 0.0 0.07 0.04 0.04 99 1017.3
20260904140528 53 183 0.0 0.0 0.00 0.02 0.02 99 1017.2
20260904140022 53 198 0.0 0.0 0.00 0.02 0.02 99 1017.2
20260904135521 53 198 0.0 0.0 0.00 0.02 0.02 99 1017.0
20260904135018 53 195 0.0 0.0 0.00 0.02 0.02 99 1017.0
20260904134513 53 195 0.0 0.0 0.00 0.02 0.02 99 1016.8
20260904134007 53 191 0.0 0.0 0.07 0.02 0.02 98 1016.9
20260904133502 53 183 0.0 0.0 0.00 0.01 0.01 98 1016.8
20260904132957 53 181 0.0 0.0 0.00 0.01 0.01 99 1016.8
20260904132452 53 183 0.0 0.0 0.00 0.01 0.01 98 1016.7
20260904131952 53 177 0.0 0.0 0.00 0.01 0.01 98 1016.8
20260904131447 53 162 0.0 0.0 0.00 0.01 0.01 99 1016.5
20260904130943 53 184 0.0 0.0 0.00 0.01 0.01 99 1016.5
20260904130442 53 184 0.0 0.0 0.00 0.01 0.01 99 1016.7
20260904125937 53 181 0.0 0.0 0.00 0.01 0.01 98 1016.5
20260904125433 53 185 0.0 0.0 0.00 0.01 0.01 98 1016.5
20260904124933 53 154 0.0 0.0 0.00 0.01 0.01 99 1016.7
20260904124429 53 183 0.0 0.0 0.00 0.01 0.01 98 1016.4
20260904123925 53 166 0.0 0.0 0.00 0.01 0.01 99 1016.4
20260904123425 53 183 0.0 0.0 0.00 0.01 0.01 98 1016.5
20260904122920 53 182 0.0 0.0 0.00 0.01 0.01 98 1016.4
20260904122420 53 188 0.0 0.0 0.00 0.01 0.01 98 1016.2
20260904121914 53 187 0.0 0.0 0.00 0.01 0.01 98 1016.3
20260904121411 53 192 0.0 0.0 0.00 0.01 0.01 98 1016.2
20260904120907 53 193 0.0 0.0 0.00 0.01 0.01 98 1016.4
20260904120403 53 187 0.0 0.0 0.00 0.01 0.01 98 1016.2
20260904115857 53 180 0.0 0.0 0.00 0.01 0.01 98 1016.0
20260904115353 53 184 0.0 0.0 0.00 0.01 0.01 98 1016.2
20260904114847 53 182 0.0 0.0 0.00 0.01 0.01 98 1016.2
20260904114342 53 187 0.0 0.0 0.00 0.01 0.01 98 1016.1
20260904113837 53 182 0.0 0.0 0.00 0.01 0.01 98 1015.9
20260904113336 53 188 0.0 0.0 0.00 0.01 0.01 98 1015.9
20260904112832 53 195 0.0 0.0 0.00 0.01 0.01 98 1016.0
20260904112327 53 194 0.0 0.0 0.00 0.01 0.01 98 1016.0
20260904111822 53 195 0.0 0.0 0.00 0.01 0.01 98 1015.9
20260904111318 53 194 0.0 0.0 0.00 0.01 0.01 98 1015.9
20260904110814 53 197 0.0 0.0 0.00 0.01 0.01 98 1015.8
20260904110313 53 189 0.0 0.0 0.00 0.01 0.01 98 1015.9
20260904105808 53 163 0.0 0.0 0.00 0.01 0.01 98 1015.9
20260904105305 53 160 0.0 0.0 0.00 0.01 0.01 98 1015.7
20260904104757 53 175 0.0 0.0 0.00 0.01 0.01 98 1015.7
20260904104253 53 187 0.0 0.0 0.00 0.01 0.01 98 1015.6
20260904103749 53 184 0.0 0.0 0.00 0.01 0.01 98 1015.7
20260904103243 53 155 0.0 0.0 0.00 0.01 0.01 98 1015.7
20260904102739 53 174 0.0 0.0 0.00 0.01 0.01 98 1015.7
20260904102235 53 148 0.0 0.0 0.00 0.01 0.01 98 1015.6
20260904101731 53 159 0.0 0.0 0.00 0.01 0.01 98 1015.7
20260904101227 53 153 0.0 0.0 0.00 0.01 0.01 98 1015.5
20260904100723 53 149 0.0 0.0 0.00 0.01 0.01 98 1015.5
20260904100219 53 181 0.0 0.0 0.00 0.01 0.01 98 1015.4
20260904095718 53 194 0.0 0.0 0.00 0.01 0.01 98 1015.6
20260904095213 53 187 0.0 0.0 0.00 0.01 0.01 98 1015.4
20260904094708 53 176 0.0 0.0 0.00 0.01 0.01 98 1015.6
20260904094203 53 183 0.0 0.0 0.00 0.01 0.01 98 1015.6
20260904093700 53 183 0.0 0.0 0.00 0.01 0.01 98 1015.4
20260904093159 53 182 0.0 0.0 0.00 0.01 0.01 98 1015.5
20260904092655 53 185 0.0 0.0 0.00 0.01 0.01 98 1015.4
20260904092151 53 181 0.0 0.0 0.00 0.01 0.01 98 1015.6
20260904091647 53 189 0.0 0.0 0.00 0.01 0.01 98 1015.5
20260904091147 53 196 0.0 0.0 0.00 0.01 0.01 98 1015.7
20260904090642 53 201 0.0 0.0 0.00 0.01 0.01 98 1015.6
20260904090138 53 194 0.0 0.0 0.00 0.01 0.01 98 1015.7
20260904085637 53 194 0.0 0.0 0.00 0.01 0.01 98 1015.6
20260904085132 53 200 0.0 0.0 0.07 0.01 0.01 98 1015.5
20260904084627 54 217 0.0 0.0 0.07 0.01 0.01 98 1015.7
20260904084124 53 215 0.0 0.0 0.00 0.00 0.00 98 1015.5
20260904083620 54 183 0.0 0.0 0.00 0.00 0.00 98 1015.5
20260904083115 54 155 0.0 0.0 0.00 0.00 0.00 98 1015.6
20260904082610 54 155 0.0 0.0 0.00 0.00 0.00 98 1015.5
20260904082106 54 161 0.0 0.0 0.00 0.00 0.00 98 1015.7
20260904081601 54 171 0.0 0.0 0.00 0.00 0.00 98 1015.3
20260904081056 54 142 0.0 0.0 0.00 0.00 0.00 98 1015.3
20260904080552 54 192 0.0 0.0 0.00 0.00 0.00 98 1015.2
20260904080048 54 189 0.0 0.0 0.00 0.00 0.00 98 1015.2
20260904075544 54 192 0.0 0.0 0.00 0.00 0.00 98 1015.3
20260904075044 54 191 0.0 0.0 0.00 0.00 0.00 98 1015.5
20260904074543 54 183 0.0 0.0 0.00 0.00 0.00 98 1015.6
20260904074038 54 202 0.0 0.0 0.00 0.00 0.00 98 1015.5
20260904073533 54 204 0.0 0.0 0.00 0.00 0.00 98 1015.5
20260904073029 54 212 0.0 0.0 0.00 0.00 0.00 98 1015.6
20260904072525 54 209 0.0 0.0 0.00 0.00 0.00 98 1015.7
20260904072020 54 206 0.0 0.0 0.00 0.00 0.00 98 1015.8
20260904071515 54 202 0.0 0.0 0.00 0.00 0.00 98 1015.7
20260904071010 54 205 0.0 0.0 0.00 0.00 0.00 98 1015.5
20260904070508 54 206 0.0 0.0 0.07 0.00 0.00 98 1015.5
20260904070004 54 207 0.0 0.0 0.07 0.61 0.61 98 1015.7
20260904065459 54 197 0.0 0.0 0.00 0.60 0.60 98 1015.7
20260904064955 54 197 0.0 0.0 0.07 0.60 0.60 98 1015.7
20260904064450 54 196 0.0 0.0 0.07 0.60 0.60 98 1015.7
20260904063945 54 192 0.0 0.0 0.00 0.59 0.59 98 1015.6
20260904063442 54 195 0.0 0.0 0.00 0.59 0.59 98 1015.5
20260904062937 54 195 0.0 0.0 0.00 0.59 0.59 98 1015.5
20260904062433 54 195 0.0 0.0 0.00 0.59 0.59 98 1015.6
20260904061928 54 199 0.0 0.0 0.00 0.59 0.59 98 1015.4
20260904061424 54 189 0.0 0.0 0.07 0.59 0.59 98 1015.5
20260904060920 54 191 0.0 0.0 0.07 0.59 0.59 98 1015.4
20260904060416 54 193 0.0 0.0 0.00 0.58 0.58 98 1015.5
20260904055911 54 195 0.0 0.0 0.00 0.58 0.58 98 1015.5
20260904055407 54 192 0.0 0.0 0.00 0.58 0.58 98 1015.3
20260904054902 54 188 0.0 0.0 0.00 0.58 0.58 98 1015.5
20260904054358 54 191 0.0 0.0 0.00 0.58 0.58 98 1015.4
20260904053854 54 185 0.0 0.0 0.00 0.58 0.58 98 1015.5
20260904053352 54 188 0.0 0.0 0.00 0.58 0.58 98 1015.5
20260904052849 54 178 0.0 0.0 0.00 0.58 0.58 98 1015.5